Regional Weather Roundup
Issued by NWS

Home | Current Version | Previous Version | Graphics & Text | Print | Product List | Glossary On
Versions: 1 2 3 4 5 6 7 8 9 10 11 12 13 14 15 16 17 18 19 20 21 22 23 24 25 26
000
ASUS45 KSLC 261210
RWRUT

UTAH REGIONAL WEATHER ROUNDUP
NATIONAL WEATHER SERVICE SALT LAKE CITY UT
600 AM MDT THU MAY 26 2016

UTZ001>011-023>025-261300-

NORTHERN UTAH

CITY           SKY/WX    TMP DP  RH WIND       PRES   REMARKS
BRIGHAM CITY     N/A     44  39  83 CALM      30.01S
HILL AFB       CLEAR     45  39  79 E15       29.99F
LOGAN          CLEAR     39  38  96 CALM      30.04S
OGDEN          CLEAR     46  40  79 S6        29.99S
PROVO AIRPORT  CLEAR     45  36  70 CALM      30.00S
SALT LAKE CITY CLEAR     49  44  83 W5        29.99S
VERNAL         CLOUDY    44  31  60 W6        29.99S
WENDOVER       CLOUDY    55  36  47 NW10      30.01S
HEBER CITY     CLEAR     34  32  93 CALM      30.02S
WEST JORDAN    CLEAR     45  43  93 W6        30.01S

$$

UTZ012>022-026-027-261300-

SOUTHERN/CENTRAL UTAH

CITY           SKY/WX    TMP DP  RH WIND       PRES   REMARKS
BLANDING       CLEAR     43  18  37 NE6       30.01S
BRYCE CANYON   PTCLDY    34  26  72 N7        30.04S WCI  28
CEDAR CITY     CLEAR     43  31  62 CALM      30.00S
DELTA          PTCLDY    43  41  93 E5        30.00S
MILFORD        PTCLDY    40  33  76 N3        30.00S
MOAB/CYNLANDS  PTCLDY    54  27  35 CALM      29.86S
PRICE          PTCLDY    46  27  47 N3        29.95F
ST GEORGE      SUNNY     55  23  28 S6        29.91S
KANAB          PTCLDY    46  30  53 S3        29.98

$$

REGIONAL REPORTS     COLORADO/ARIZONA

CITY           SKY/WX    TMP DP  RH WIND       PRES   REMARKS
CRAIG, CO      CLOUDY    34  30  85 CALM      30.05S
GRAND JUNCTION CLOUDY    48  28  46 S7        29.91S
RIFLE          MOCLDY    40  29  64 CALM      29.97F
MONTROSE       CLOUDY    51  22  31 E10       29.96F
CORTEZ         MOCLDY    42  26  53 NE5       29.97F
PAGE, AZ       PTCLDY    61  26  26 VRB6      29.88S
GRAND CANYON   MOCLDY    35  25  66 CALM      30.03S
KINGMAN        CLEAR     48  50 100 MISG      29.94S
FLAGSTAFF      MOCLDY    39  25  57 VRB3      30.03S

$$

REGIONAL REPORTS    NEVADA/IDAHO/WYOMING

CITY           SKY/WX    TMP DP  RH WIND       PRES   REMARKS
LAS VEGAS, NV  PTCLDY    62  34  35 S5        29.87R
ELY            CLOUDY    38  36  92 SW5       30.09S WCI  34
ELKO           FOG       35  34  96 CALM      30.08S VSB 3/4
POCATELLO, ID  CLEAR     40  37  89 S3        30.04S
BURLEY         CLEAR     43  38  82 SW5       30.02S
EVANSTON, WY   CLEAR     38  34  85 NE7       30.07F WCI  33
ROCK SPRINGS   CLEAR     35  32  88 W6        30.07R WCI  30
KEMMERER         N/A     32  32 100 NW12      30.08S WCI  23

$$




USA.gov is the U.S. government's official web portal to all federal, state and local government web resources and services.